User: anonymous   Login
Location: Columbia
(38.9520°N, 92.3340°W)
Time: 12:03:03
(UTC-06:00)
Language:

CZ-4B R/B - Orbit

View from above orbital plane
View from above orbital plane
View from above satellite
View from above satellite

Ground track
Ground track

The orbit data is extracted from the following two-line orbital elements,

1 29093U 06015B   17057.50533192  .00003742  00000-0  92483-4 0  9999
2 29093  97.4873 165.8983 0065320 357.0110   3.0735 15.38955275600505
Epoch (UTC): 26 February 2017 12:07:40
Eccentricity: 0.0065320
inclination: 97.4873°
perigee height: 404 km
apogee height: 494 km
right ascension of ascending node: 165.8983°
argument of perigee: 357.0110°
revolutions per day: 15.38955275
mean anomaly at epoch: 3.0735°
orbit number at epoch: 60050

The dashed part of the orbit path shows where the satellite is in the earth's shadow,  

DLR